Location: Bouillancy
(49.1149°N, 2.9308°E)
Time: 08:36:04
(UTC+00:00)

USA 186 - Pass Details

Date: 30 September 2020
Orbit: 261 x 425 km, 96.9° (Epoch: 12 October)

Event Time Altitude Azimuth Distance (km) Brightness Sun altitude
Exits shadow 19:04:04 39° 129° (SE) 659 2.3 -16.4°
Maximum altitude 19:04:59 56° 74° (ENE) 519 1.8 -16.5°
Drops below altitude 10° 19:08:12 10° 356° (N) 1,527 4.8 -17.0°
Sets 19:10:14 0° 352° (N) 2,386 5.9 -17.3°
